Location: Brachbach
(49.1847°N, 9.7240°E)
Time: 06:00:03
(UTC+00:00)

PCSat - Pass Details

Date: 14 March 2026
Orbit: 780 x 790 km, 67.1° (Epoch: 13 April)

Event Time Altitude Azimuth Distance (km) Brightness Sun altitude
Rises 04:26:03 0° 325° (NW) 3,296 12.5 -12.4°
Reaches altitude 10° 04:29:06 10° 342° (NNW) 2,365 12.0 -11.9°
Maximum altitude 04:33:06 20° 29° (NNE) 1,751 11.9 -11.2°
Drops below altitude 10° 04:37:04 10° 77° (ENE) 2,358 13.6 -10.6°
Sets 04:40:07 0° 94° (E) 3,284 14.7 -10.1°
